Starlink 3559

operational
NORAD ID: 51860 Int'l Des: 2022-022 Owner: SPXS Country: US Constellation: starlink
LEOCIRCULAR

Über Starlink 3559

Beschreibung wird geladen...

Live-Position

3D-Globus wird geladen...

Nächste Überflüge

Höhenverlauf

Altitude vs Time

uPlot chart will show altitude changes over time

Zweizeiliger Elementsatz

1 51860U 22022J 25308.00483890 -.00000566 00000-0 -17484-4 0 9995
2 51860 53.2169 213.3448 0001468 80.6156 279.5002 15.08837087204141
Epoch: 4. Nov. 2025 • Age: 11 hours

Aktueller Status

Höhe 541.1 km
Geschwindigkeit 7.59 km/s
Subsatellitenpunkt -3.29°S, 3.53°W
Startdatum 3. März 2022
Alter 3.6 years
Typ internet

Technische Details

Klassifizierung Payload
Masse 297.00 kg
Trockenmasse 275.00 kg
Gesamtmasse 297.00 kg
Länge 0.20 m
Durchmesser 2.80 m
Spannweite 9.00 m
Form Box + pan
Hersteller SPXS
Bus-Typ Starlink
Phasenstatus In Orbit
Besitzer/Staat SPXS/US

Große Konstellationen

Loading constellations...